Location: ???????????
(54.5822°N, 39.1075°E)
Time: 04:36:53
(UTC+00:00)

Spot 2 Rocket - Pass Details

Date: 19 May 2025
Orbit: 753 x 766 km, 98.3° (Epoch: 19 June)

Event Time Altitude Azimuth Distance (km) Brightness Sun altitude
Exits shadow 18:37:40 - 175° (S) 2,770 5.9 -7.8°
Reaches altitude 10° 18:38:55 10° 178° (S) 2,277 5.5 -7.9°
Maximum altitude 18:43:52 60° 258° (WSW) 866 3.9 -8.3°
Drops below altitude 10° 18:48:52 10° 339° (NNW) 2,300 7.5 -8.8°
Sets 18:51:14 0° 343° (NNW) 3,231 8.4 -9.0°
